Theta_e
272 272 272 271 271 270 270 270 270 270 269 269 269 269 269 270 270 270 271 270 271 270 270 270 271 271 271 271 271 271 271 271 271 272 271 271 271 271 271 271 271 271 271 271 272 272 272 274 277 280 282 282 284 286 289 290 291 291 292 292 292 293 292 291 290 289 293 296 297 299 305 306 306 310 308 309 308 311 311 316 312 313 315 315 313
271 271 270 271 270 270 269 269 269 269 269 269 269 269 269 269 270 270 270 270 270 270 270 270 271 270 270 270 269 270 269 270 270 270 270 270 270 271 271 271 270 270 271 270 271 271 272 272 274 277 281 282 284 285 287 290 290 290 291 291 291 292 294 292 291 291 290 293 294 299 303 308 307 309 309 308 308 308 311 312 313 315 315 315 314
271 270 270 269 269 269 269 268 268 268 268 268 268 269 269 269 270 269 269 270 270 270 270 269 269 269 268 268 268 268 268 268 268 269 269 269 269 270 270 271 271 270 270 270 271 271 272 272 274 277 281 281 283 285 287 289 290 290 290 291 291 292 293 294 293 291 291 292 295 296 300 304 308 306 307 309 309 311 309 309 312 314 314 314 314
270 269 269 268 268 268 268 268 268 268 268 268 268 268 269 269 269 269 269 269 268 268 268 268 267 267 266 266 266 267 267 267 267 267 267 268 268 268 269 269 270 271 271 271 271 272 273 275 277 278 280 280 282 284 287 289 289 290 290 291 292 292 293 294 294 293 293 292 294 295 299 302 305 308 310 310 309 309 309 310 312 313 312 313 313
269 268 268 267 267 267 267 267 267 267 267 267 267 268 268 268 268 267 267 267 267 267 266 267 266 265 265 265 265 265 266 266 266 266 266 267 267 268 268 269 269 270 271 272 274 273 273 272 273 276 279 279 280 282 286 287 289 289 289 290 290 291 292 293 293 294 294 293 294 296 299 301 304 306 307 307 307 308 308 309 310 311 310 311 313
268 267 267 266 266 266 266 266 267 267 267 267 267 267 267 267 266 266 266 265 265 265 265 265 265 265 265 265 265 265 265 265 265 266 266 266 267 267 268 268 269 269 270 270 270 270 271 271 272 272 275 277 279 281 284 286 287 288 288 289 290 291 291 291 293 293 293 294 294 294 297 299 300 303 306 308 306 304 305 306 308 309 308 307 308
266 266 266 266 265 266 266 266 266 266 266 267 267 266 266 265 265 265 265 264 264 264 264 264 264 264 264 264 265 265 265 265 265 266 266 266 267 267 267 268 268 269 269 269 270 270 270 271 271 272 273 276 277 280 284 286 287 287 288 288 290 290 290 291 292 292 293 293 295 296 296 299 301 300 303 307 306 306 304 303 303 305 306 307 306
265 264 265 265 265 265 266 266 266 266 266 266 266 265 265 264 264 264 264 263 263 263 263 263 263 264 264 264 265 265 265 265 266 266 266 267 267 267 267 268 268 268 269 269 270 270 271 271 272 273 275 277 278 280 282 284 286 286 288 288 288 287 286 286 287 290 292 294 294 295 297 298 299 302 302 303 302 303 305 304 302 302 303 305 306
264 264 264 264 264 265 266 266 266 266 265 265 264 264 263 263 263 263 263 262 263 263 263 263 263 263 263 264 264 265 265 266 266 266 267 267 267 267 268 268 268 268 269 269 270 270 271 271 272 273 275 278 280 281 283 286 286 285 286 287 286 286 286 286 286 287 290 293 294 296 296 298 299 299 299 300 301 301 303 305 304 304 305 304 304
263 263 263 264 264 265 265 265 265 264 263 263 263 262 262 262 262 262 262 262 262 263 263 263 263 263 263 264 265 265 265 266 268 272 273 270 269 270 270 270 270 270 269 270 270 271 272 272 272 276 277 278 279 281 283 284 285 286 286 286 286 285 285 285 285 286 287 291 294 295 295 297 299 299 300 301 302 303 304 303 302 302 303 301 301
263 263 263 264 264 264 264 263 263 262 262 262 261 261 261 261 261 261 261 262 262 263 263 263 263 264 264 264 264 265 266 267 271 273 275 276 273 272 271 271 271 271 271 271 271 272 273 274 275 276 277 278 278 281 282 283 285 287 288 288 287 286 285 284 284 285 285 288 293 295 296 296 299 300 301 302 302 303 303 303 301 301 300 298 298
262 262 263 263 263 263 262 262 261 261 260 260 260 260 260 260 260 261 261 261 263 264 264 264 264 265 265 265 265 265 266 270 273 274 275 276 276 273 273 272 272 272 272 272 272 272 272 273 273 274 275 277 278 279 281 283 285 286 287 288 288 288 288 286 285 284 285 286 291 295 296 297 299 301 301 302 301 302 303 302 301 301 300 300 300
262 262 262 262 262 261 261 260 259 259 259 259 259 259 259 260 260 260 261 262 263 263 264 264 264 265 265 265 265 266 266 271 273 275 276 277 277 276 274 273 273 273 273 273 273 273 273 273 273 274 276 279 279 279 279 280 282 285 286 287 287 287 288 288 288 286 286 286 287 294 297 298 298 301 302 302 303 302 301 301 301 302 302 302 302
261 261 261 261 260 260 260 259 258 258 259 259 259 259 259 259 260 261 262 263 263 263 263 263 263 264 264 264 264 265 266 270 274 275 276 277 278 278 275 275 274 274 273 273 273 273 273 273 272 273 274 276 279 281 281 282 283 284 284 285 285 286 287 287 287 287 287 287 288 290 299 300 299 302 302 303 302 300 300 300 300 301 300 302 304
260 260 260 260 259 258 258 258 258 258 258 258 258 258 259 260 261 262 262 262 262 262 262 262 262 263 263 263 264 265 266 272 274 275 276 277 278 278 276 276 275 275 275 274 274 274 273 273 273 273 274 275 277 281 281 282 283 284 284 284 285 285 286 286 287 287 288 291 292 292 299 302 302 303 304 305 304 304 304 301 301 301 298 294 294
259 259 258 258 258 258 257 257 257 257 258 258 258 258 259 260 261 262 262 262 262 262 262 262 262 262 262 263 263 264 266 272 274 275 276 277 279 276 276 276 275 275 275 275 275 274 274 274 274 274 274 275 278 280 281 281 282 283 283 284 284 285 286 287 288 289 289 291 294 296 300 303 302 302 301 305 305 304 298 295 294 294 296 298 296
258 258 257 257 257 257 257 257 256 257 257 257 257 258 259 260 261 261 261 261 261 261 261 261 262 262 262 263 263 264 266 270 274 276 277 278 277 275 275 275 275 275 274 275 275 275 275 275 274 274 275 276 279 282 283 282 280 282 282 283 284 284 285 286 288 289 290 291 292 295 299 301 301 302 302 302 301 298 298 298 297 299 299 296 294
257 257 257 257 257 257 257 256 256 256 256 256 257 259 259 260 260 261 260 260 260 260 261 261 262 262 263 263 264 265 266 270 274 275 277 277 277 274 274 274 275 275 274 275 275 275 275 277 277 275 274 275 280 283 284 283 281 281 282 282 283 283 284 286 287 288 290 292 293 295 297 300 300 301 301 301 300 299 300 298 298 300 298 296 294
256 256 256 257 256 256 256 256 256 256 256 257 258 258 259 259 260 260 260 260 260 260 261 261 262 263 264 264 268 267 267 269 273 275 276 277 275 274 274 274 274 274 274 274 275 275 274 276 277 277 276 277 281 283 283 282 281 281 282 282 282 282 284 286 286 286 288 291 295 296 296 298 299 301 299 299 298 299 303 301 300 300 298 297 296
256 256 256 256 256 255 256 255 255 255 256 257 258 258 259 259 259 259 259 260 260 260 261 262 262 263 265 265 266 267 267 268 271 275 275 276 277 274 274 273 273 274 275 274 273 274 274 274 276 278 280 281 282 283 284 284 281 281 282 282 282 282 285 285 286 286 287 290 295 296 297 299 299 299 300 299 299 299 303 303 301 301 299 297 296
256 255 255 255 255 255 255 255 255 255 256 257 258 258 258 259 259 258 258 259 260 260 261 262 263 264 265 266 266 267 268 269 270 274 275 275 277 276 273 273 274 274 274 275 275 274 274 274 275 278 280 281 282 283 284 284 284 283 283 283 284 285 286 285 286 286 286 287 291 294 296 297 296 298 298 299 299 300 301 301 302 303 301 298 297
255 253 253 253 253 253 254 255 255 256 257 257 257 257 258 258 258 258 258 259 259 260 261 263 263 264 265 266 267 267 269 271 269 272 274 275 276 277 274 274 275 275 275 275 275 275 275 275 275 277 280 281 282 283 284 284 285 283 284 286 287 287 286 286 286 286 286 287 292 294 295 295 296 296 297 298 298 298 301 301 302 304 303 301 300
253 252 252 252 252 253 253 254 255 256 256 257 256 256 257 257 257 257 258 259 260 261 262 263 264 264 265 265 267 268 269 269 271 270 273 274 276 277 277 277 278 276 275 275 276 276 276 276 276 279 280 281 282 283 283 284 284 283 285 286 287 288 287 286 285 285 286 287 292 293 293 294 295 296 296 297 298 298 299 300 301 301 300 300 302
252 250 250 251 252 253 253 254 255 255 255 256 256 256 256 256 257 257 258 259 260 261 262 263 264 264 264 265 266 267 268 268 270 272 271 274 276 277 277 278 278 276 276 276 276 277 277 276 277 279 280 281 282 283 283 284 284 285 286 286 287 287 286 285 285 285 286 288 292 293 293 294 295 296 296 297 298 298 299 299 300 299 299 296 294
250 249 249 250 251 252 253 254 254 254 255 255 255 255 255 255 255 257 258 260 261 261 262 263 264 264 264 264 265 267 267 268 268 270 273 274 275 276 277 277 278 278 275 276 277 278 280 281 281 281 281 282 282 283 284 284 285 286 286 286 287 286 285 285 285 286 286 289 291 292 293 294 296 297 298 298 297 298 296 295 292 290 290 291 290
248 248 248 249 250 251 252 254 254 254 254 255 255 255 255 255 255 256 258 259 260 260 262 264 264 264 264 265 265 266 267 267 267 268 270 272 273 274 275 276 276 277 277 276 279 280 281 282 283 282 282 282 282 282 282 283 285 286 286 286 286 286 285 285 285 285 287 290 291 292 294 295 296 297 297 297 296 295 294 292 293 292 291 292 291
249 248 247 249 250 251 252 253 255 255 254 254 254 255 255 255 255 257 258 259 260 261 263 264 264 264 264 264 265 266 266 266 267 268 270 270 270 271 272 272 275 276 275 275 277 278 280 281 282 283 282 283 283 283 283 284 285 285 286 286 286 286 286 285 286 286 288 291 292 293 295 295 295 294 295 295 294 295 295 294 295 293 293 293 292
248 247 247 249 250 251 251 255 254 253 254 254 254 253 254 255 256 257 257 259 260 262 264 264 264 264 264 264 264 265 265 266 267 268 269 269 270 270 271 271 272 273 273 274 275 278 279 282 283 283 282 282 282 282 283 284 284 285 285 285 285 286 286 286 286 287 290 292 293 293 293 293 293 294 294 295 295 294 294 295 295 293 293 293 291
248 246 249 249 251 252 251 250 252 252 253 254 254 254 254 255 257 258 260 261 263 264 264 264 265 265 266 265 264 264 265 265 267 272 270 273 270 270 269 270 271 272 274 277 277 280 281 281 282 282 281 281 281 281 283 283 284 285 285 285 285 285 285 285 285 286 289 291 290 290 291 292 293 293 294 294 294 294 294 295 294 294 293 294 293
247 246 248 249 250 251 251 251 251 252 252 252 253 254 258 263 261 260 260 266 269 270 269 265 266 266 266 266 266 266 265 267 272 273 273 273 274 273 274 274 275 274 275 277 281 281 281 281 281 281 281 281 281 281 282 283 284 284 284 285 285 285 285 286 286 288 290 291 290 291 291 292 292 293 293 293 293 293 293 293 294 294 293 294 293
247 248 249 248 251 251 251 252 252 252 252 253 252 252 253 255 262 264 265 266 267 268 269 270 270 270 268 266 268 272 272 272 272 272 272 273 273 273 272 272 274 274 274 270 270 269 272 277 281 282 282 282 282 282 283 283 284 284 284 285 285 285 286 286 287 289 290 291 291 291 291 292 292 293 293 293 292 292 293 293 294 294 294 294 293
247 247 248 249 252 253 252 252 252 252 252 253 252 252 251 251 253 260 264 264 266 267 267 268 269 269 270 269 269 266 269 271 272 272 272 272 271 271 271 271 273 273 272 270 264 265 267 268 268 269 273 279 283 284 284 284 285 284 285 285 285 286 286 286 288 290 291 291 291 291 291 292 292 292 293 293 292 292 292 292 293 293 293 294 294
247 247 247 250 252 253 253 251 251 251 251 251 252 252 250 250 250 251 255 262 264 264 265 266 267 268 269 269 271 271 270 270 271 271 271 270 270 270 270 269 271 272 270 263 261 262 264 265 265 267 268 268 270 274 282 285 285 285 285 285 285 286 287 288 289 290 291 291 291 291 291 292 292 292 292 292 291 291 291 292 293 293 293 293 292
246 246 247 250 252 251 251 251 251 251 251 252 251 251 250 250 250 251 251 251 253 258 262 264 265 266 267 268 270 270 270 270 270 270 270 270 269 268 268 264 270 270 267 261 261 261 263 264 264 265 265 266 268 269 271 274 281 285 285 286 286 287 287 289 289 290 291 291 291 291 291 292 291 291 292 292 292 292 291 292 292 292 292 293 292
246 250 253 253 251 251 251 252 251 250 251 251 251 250 250 251 251 251 250 250 250 251 252 254 259 264 263 264 268 270 269 269 269 269 269 269 268 266 265 259 259 260 260 261 261 260 261 263 263 264 264 265 266 267 267 269 272 276 283 286 286 287 288 288 289 290 290 291 291 291 291 291 291 291 291 291 291 291 291 291 292 292 292 292 292
249 250 251 251 251 252 251 248 250 250 252 251 251 250 250 250 250 250 251 251 250 251 251 252 253 259 264 264 267 268 268 267 268 268 267 268 266 263 254 256 257 258 258 260 260 260 261 263 264 264 264 265 265 266 266 267 269 270 273 280 286 287 287 288 289 290 290 291 291 290 290 291 291 291 292 292 291 291 291 291 292 291 292 292 292
247 249 250 251 250 251 250 250 249 251 254 251 249 248 249 250 250 250 250 249 250 251 250 251 252 253 257 257 262 265 266 265 266 266 265 265 265 256 253 255 257 258 258 259 260 261 261 262 263 264 264 265 265 266 266 266 267 268 271 274 280 287 288 289 289 289 290 291 291 290 290 291 291 291 291 291 291 291 291 291 291 291 291 291 290
248 247 248 252 251 251 250 246 250 252 249 248 247 247 248 248 249 249 249 249 251 250 249 250 253 251 252 253 260 259 258 262 263 261 261 260 255 253 253 254 255 257 258 259 260 261 262 263 263 263 264 265 265 265 265 266 266 267 268 270 274 282 288 289 289 289 290 290 291 290 290 291 291 291 291 291 291 291 291 291 291 291 290 290 291
247 253 256 257 257 251 247 247 247 246 246 247 247 248 249 249 248 248 248 248 248 249 249 249 250 250 251 253 258 259 256 253 253 252 253 253 253 253 252 253 253 255 258 259 260 261 262 262 263 264 264 264 265 265 265 265 266 266 267 268 270 276 285 289 289 290 290 290 291 291 291 291 291 291 291 291 291 291 291 290 291 291 290 290 291
244 242 248 257 251 251 249 248 247 245 247 247 247 247 246 247 247 247 247 247 247 248 248 249 249 249 251 254 259 258 252 252 252 252 252 252 252 252 252 252 252 254 256 258 260 261 262 263 264 264 264 264 265 265 265 265 265 266 266 266 267 269 273 285 289 289 290 291 291 291 291 291 291 291 291 291 291 291 291 290 290 290 291 291 291
241 243 250 253 253 247 246 247 245 245 244 245 245 244 244 246 247 247 246 247 247 248 248 248 248 249 251 258 264 262 252 251 252 252 252 252 252 251 252 252 252 254 257 258 260 261 262 263 263 264 264 264 265 265 265 265 265 265 265 266 266 267 269 270 276 285 290 290 290 290 291 291 291 291 290 291 290 291 291 291 291 291 290 290 291
242 244 245 245 247 246 245 245 245 247 244 245 244 245 246 246 245 245 247 247 247 248 247 248 248 249 253 261 261 262 253 251 252 251 252 252 251 252 252 252 252 255 258 258 260 261 262 263 264 264 264 264 265 265 265 265 265 265 265 265 265 265 266 267 269 270 275 287 290 290 290 290 291 291 291 290 291 291 291 291 291 291 291 290 290
245 244 244 246 244 244 244 244 244 242 243 243 244 247 247 245 244 245 245 246 247 247 247 247 248 249 250 257 257 258 251 251 252 251 251 251 251 251 251 252 253 256 258 259 260 262 262 263 264 264 264 265 265 265 265 265 265 265 265 265 265 265 265 266 266 268 269 272 281 289 290 290 290 290 291 290 291 291 290 290 290 290 290 290 290
245 245 245 245 244 244 244 242 243 244 243 246 246 245 246 244 243 243 243 244 246 246 246 246 247 248 248 250 251 250 249 250 250 251 251 251 250 251 251 252 253 256 258 258 260 262 262 263 263 264 265 265 266 266 266 266 266 266 265 265 265 265 265 265 265 267 268 269 272 280 289 290 290 290 290 290 290 290 290 290 290 290 290 290 290
242 243 243 242 243 241 242 242 244 242 245 244 241 241 244 242 243 243 245 245 246 246 246 246 247 247 248 248 248 249 249 249 250 251 251 251 250 251 251 251 252 255 257 258 260 261 262 262 263 264 264 265 265 266 266 267 267 267 267 266 265 264 264 264 266 267 268 269 272 278 285 290 290 290 290 290 290 290 290 289 289 288 289 289 289
242 243 244 242 243 244 243 241 244 241 241 241 241 241 242 241 241 242 244 244 245 246 245 246 246 246 247 247 248 248 248 249 249 250 251 251 251 251 251 251 252 255 257 258 259 261 262 262 263 263 264 265 265 266 266 267 267 267 267 267 266 266 266 266 267 267 268 269 270 275 283 288 289 289 289 290 290 290 290 289 289 289 289 289 289
241 242 243 243 242 243 244 243 242 241 240 242 242 242 242 243 242 244 244 246 246 245 245 245 245 245 246 247 247 247 248 248 249 249 250 250 251 251 250 251 251 254 256 257 259 261 261 262 262 263 264 265 265 265 266 266 267 267 267 268 268 267 266 266 267 267 268 269 271 273 280 287 288 289 289 289 289 289 289 289 289 289 289 289 289
242 243 243 243 242 241 241 240 242 245 241 241 242 242 243 243 242 243 243 243 243 244 244 244 244 245 246 246 247 247 248 248 249 249 250 250 250 251 250 250 251 253 255 255 258 260 261 261 262 263 264 265 265 265 266 266 267 267 267 268 268 268 267 266 266 267 268 269 270 272 273 277 282 286 287 287 287 287 287 287 287 288 288 288 288
243 243 243 242 242 242 241 242 243 240 240 241 241 241 242 241 241 241 242 242 242 243 242 243 244 245 245 246 247 247 247 248 248 248 249 249 250 250 250 250 251 252 253 253 257 259 260 261 261 262 263 265 265 265 265 266 266 267 267 268 268 268 267 267 266 266 267 268 269 269 271 272 272 273 277 283 286 286 286 286 286 286 286 286 286
245 243 243 243 243 241 242 241 240 239 241 241 240 240 241 241 240 241 242 243 243 243 243 243 244 244 245 245 246 246 247 247 247 248 248 249 249 249 250 250 250 251 252 252 256 259 260 260 261 262 263 264 266 265 266 266 266 267 268 268 269 268 268 267 266 266 266 266 267 268 268 269 270 271 271 272 275 282 285 285 285 285 286 286 286
246 246 246 243 242 242 241 238 238 239 239 240 239 239 240 240 239 241 242 242 243 243 243 243 243 244 245 245 246 246 246 247 247 247 248 248 248 249 249 250 250 251 252 252 255 258 259 260 261 261 262 263 266 266 266 266 267 267 268 268 269 268 268 267 266 266 267 266 266 267 267 267 267 268 268 269 271 271 272 276 281 285 285 285 285
Wind_Speed
1 3 3 3 4 5 6 6 7 7 8 8 10 10 10 11 9 11 10 11 10 12 13 13 12 14 12 14 12 15 14 17 16 13 18 15 18 15 16 14 16 15 13 15 12 17 20 20 19 15 11 12 13 13 15 14 12 12 10 10 12 11 12 13 15 16 17 9 9 12 11 9 9 12 15 14 14 12 16 16 21 19 17 16 15
2 3 2 3 4 6 6 6 6 7 8 10 10 10 10 9 11 11 10 12 10 12 13 11 11 12 13 16 16 16 18 18 18 15 17 17 19 14 15 15 14 14 13 15 15 13 16 19 21 19 14 15 14 15 15 15 12 10 8 9 9 9 9 12 13 13 18 12 9 10 11 13 12 13 15 16 17 13 15 16 19 21 17 18 18
2 2 3 4 5 5 6 7 7 8 9 9 9 10 10 10 10 10 12 10 10 10 11 13 15 15 16 15 16 17 17 17 16 17 17 18 19 18 16 17 19 19 18 17 15 15 17 18 20 17 12 14 16 15 16 16 12 11 10 10 11 11 11 13 12 14 16 16 10 9 10 12 14 13 14 15 17 16 17 17 18 17 19 19 19
2 2 3 4 5 6 7 7 8 9 10 9 10 10 9 9 9 11 11 10 12 11 12 13 14 16 16 17 17 18 18 17 18 17 19 19 19 19 19 18 19 18 19 18 16 16 18 18 16 14 14 15 15 14 13 13 13 10 10 9 10 11 11 11 13 12 12 14 12 8 11 11 12 15 17 16 15 14 16 17 17 19 18 20 20
2 3 4 6 6 7 8 8 9 9 10 9 10 10 10 10 10 11 12 13 12 13 12 13 15 15 16 17 18 19 18 18 19 19 18 18 19 19 19 18 18 19 19 17 16 16 16 14 14 14 12 14 15 15 13 16 11 9 9 9 9 9 9 10 12 12 14 15 14 9 10 11 11 12 15 17 14 15 16 18 19 19 18 17 18
2 4 5 6 7 8 8 8 9 10 10 10 11 10 10 10 11 11 11 13 14 13 15 16 13 17 18 18 19 20 19 18 19 20 19 18 18 18 18 18 18 18 17 16 16 15 16 17 16 16 17 14 13 14 14 12 10 9 9 9 9 9 11 11 11 13 14 15 13 12 10 12 10 11 16 18 17 14 14 15 16 18 18 16 13
4 5 6 6 7 8 8 9 9 9 9 10 10 10 11 11 10 12 11 13 13 14 14 13 15 16 18 19 19 20 20 19 18 19 18 19 19 19 19 19 18 16 16 18 17 18 18 18 18 18 20 17 17 16 13 12 10 10 10 10 9 9 10 10 10 12 14 14 13 13 13 12 10 11 14 19 18 18 19 15 13 12 14 18 17
3 4 5 6 7 8 8 9 9 9 9 10 10 10 10 10 11 11 12 13 13 13 13 15 15 13 17 18 18 19 19 18 18 18 18 18 18 18 18 18 18 17 18 18 18 17 18 18 18 19 18 17 15 15 15 14 11 10 9 9 8 8 8 7 8 9 12 14 13 12 13 13 11 11 13 15 15 14 18 20 18 16 14 14 17
3 4 4 6 7 8 8 8 8 9 9 10 10 10 10 11 11 12 12 12 11 12 13 13 14 16 16 15 18 18 17 18 15 14 16 17 16 17 18 18 18 18 17 17 17 17 17 17 18 19 20 23 26 24 21 17 12 10 10 9 9 10 9 7 7 8 11 12 13 12 12 13 13 12 14 15 18 19 13 17 19 19 18 16 14
3 4 5 6 6 7 8 8 9 9 9 10 10 10 11 12 12 12 13 13 13 14 14 12 13 14 16 17 17 16 17 14 18 29 26 20 18 16 16 17 16 17 17 16 16 17 17 16 17 27 28 29 28 29 29 29 28 17 11 10 10 10 9 8 8 7 9 13 13 12 14 14 15 14 17 17 15 16 21 18 18 16 16 13 11
3 4 6 6 7 7 7 8 8 8 9 9 9 11 11 11 12 12 13 13 14 14 14 14 12 13 17 17 17 17 15 15 28 28 30 32 23 19 18 17 18 17 17 18 18 18 17 16 14 18 22 24 23 29 29 32 30 28 26 19 14 11 9 10 9 8 9 12 11 12 14 15 16 17 18 19 18 19 17 16 16 16 17 17 14
4 5 6 6 7 7 7 8 8 9 9 9 10 10 11 12 12 13 13 14 14 13 13 15 16 17 16 17 18 17 17 22 29 30 31 31 28 20 18 17 16 16 17 17 17 17 17 16 16 15 16 17 15 16 22 28 30 27 24 23 22 21 18 13 11 10 11 11 13 14 15 16 16 19 16 17 18 17 17 17 20 21 20 19 17
3 5 5 5 6 6 7 7 7 8 9 10 10 10 11 12 12 13 14 13 13 13 17 16 17 16 16 17 18 19 18 24 30 32 31 31 30 26 18 17 16 16 17 17 18 17 16 16 15 13 13 23 21 17 15 17 23 28 24 25 24 24 24 25 23 16 12 12 14 15 17 16 18 20 20 17 18 21 18 17 17 19 21 22 20
3 5 5 5 5 6 7 6 7 8 9 9 10 11 11 12 12 12 12 13 13 15 14 16 15 15 16 18 18 19 20 24 31 32 31 31 30 27 18 19 17 18 18 17 16 18 16 17 15 15 14 16 14 13 13 14 13 13 14 14 13 16 21 24 24 23 18 16 15 17 17 18 17 18 21 21 21 21 20 18 18 19 20 20 18
4 5 5 5 5 4 5 6 8 9 9 10 10 11 11 12 13 11 11 13 14 13 14 16 16 15 15 15 16 18 17 29 31 32 32 31 31 28 16 15 15 14 14 16 17 17 14 17 16 17 16 16 15 14 11 12 12 12 13 14 13 12 12 12 13 12 13 14 16 19 18 18 19 18 21 22 24 23 25 26 25 20 13 9 10
5 4 3 4 4 5 5 6 8 9 10 10 11 12 12 12 13 13 12 12 11 12 13 12 15 16 15 16 15 17 18 30 32 32 31 29 30 18 13 15 14 14 14 14 14 15 15 16 16 17 18 18 20 27 23 15 13 14 15 14 13 12 13 13 15 16 17 16 16 17 17 20 22 17 19 23 21 17 11 10 11 12 15 16 15
3 4 4 5 5 5 5 6 8 9 10 11 12 12 13 14 12 11 13 12 13 14 13 13 13 14 16 15 16 16 17 24 30 30 28 29 23 13 14 12 11 13 16 14 14 15 15 15 16 16 17 18 21 25 26 24 16 15 14 14 13 12 14 12 14 19 24 27 30 30 28 28 30 27 28 34 23 18 17 17 17 17 17 17 13
4 3 5 3 5 5 5 6 7 9 9 11 12 12 11 10 10 10 12 13 15 14 14 14 13 13 15 16 15 17 18 25 31 28 28 28 25 17 14 13 11 13 13 13 13 15 15 24 22 18 18 19 24 24 23 19 15 15 14 14 14 14 14 12 10 13 21 26 28 29 29 28 27 28 27 27 30 25 23 23 20 19 19 19 18
3 4 5 5 5 4 4 6 6 8 9 10 10 12 12 11 11 10 10 11 13 12 13 13 14 13 13 15 23 23 18 21 27 26 29 29 23 15 14 13 10 11 12 13 12 13 14 16 24 23 21 22 28 26 27 21 14 14 13 13 15 16 15 10 10 11 13 15 14 17 18 23 22 20 20 27 29 27 24 24 21 21 21 20 19
4 4 5 5 3 4 4 5 6 7 10 10 10 10 10 10 11 11 11 10 12 12 12 13 16 15 14 15 15 15 16 16 18 28 29 29 28 18 13 13 14 13 11 11 10 10 13 12 14 23 27 29 29 29 26 25 17 14 13 14 15 17 11 8 9 9 12 16 14 13 14 15 15 17 19 20 22 22 24 23 21 21 20 18 17
3 4 4 4 3 4 4 4 8 8 8 9 9 10 9 11 12 12 12 11 11 13 14 14 14 15 14 14 13 16 15 15 17 29 29 29 29 25 13 15 13 13 13 12 10 11 11 11 10 18 25 26 26 28 27 26 23 15 14 14 14 12 9 9 11 13 12 16 15 13 12 14 13 15 17 18 17 17 17 20 23 23 21 20 19
2 2 3 4 4 5 5 6 6 7 8 8 9 10 9 9 10 11 11 11 14 15 14 14 14 14 13 13 15 16 13 20 19 24 28 29 29 32 19 15 16 14 13 11 12 11 14 13 9 16 24 25 24 24 26 25 25 16 15 19 18 18 13 9 9 9 10 13 12 12 12 12 13 14 17 17 17 15 15 16 18 19 21 23 26
2 2 3 4 4 5 5 6 8 6 7 8 9 11 9 9 11 10 11 12 13 14 15 15 14 14 14 13 14 14 15 17 25 22 27 29 31 31 30 24 26 18 12 13 12 11 9 11 13 21 23 24 24 24 24 26 22 17 23 23 21 23 17 8 8 9 10 13 11 11 11 13 14 15 16 16 15 14 13 16 17 14 13 15 21
1 2 3 4 5 6 5 6 7 6 7 8 8 9 10 10 10 9 10 11 11 13 13 13 13 14 15 15 13 15 16 17 22 27 24 30 30 31 30 30 28 17 15 13 14 13 10 11 13 22 23 24 25 25 24 24 16 21 23 24 22 18 9 9 9 10 11 12 11 11 12 13 14 16 17 17 17 16 16 16 16 15 13 9 4
0 1 3 4 5 6 7 6 5 5 6 7 8 8 10 9 9 9 9 10 11 11 13 13 13 13 14 17 18 16 14 13 13 19 30 29 30 29 30 30 28 27 16 12 13 14 16 21 23 24 23 24 24 23 20 21 24 21 22 22 19 9 10 9 10 9 11 11 10 12 13 14 16 18 19 18 18 15 11 8 7 7 9 10 8
1 1 2 3 5 6 8 8 6 5 5 5 6 7 8 9 9 10 9 9 11 12 10 12 14 15 16 17 16 15 14 15 15 19 20 22 24 28 30 28 26 26 22 16 23 27 26 25 28 27 23 20 14 11 9 10 16 20 19 17 11 10 9 9 9 10 10 10 10 13 15 14 14 12 13 14 14 12 11 11 12 11 11 11 10
1 2 3 4 4 5 5 6 8 8 5 4 5 7 8 8 8 8 8 10 10 9 11 13 13 16 17 14 17 17 19 18 21 17 11 16 16 18 19 19 24 22 13 11 13 13 15 17 14 19 17 19 19 16 14 14 12 12 10 10 9 9 9 9 9 9 10 10 11 11 13 13 10 11 12 13 13 12 14 15 15 13 12 11 12
2 2 3 3 4 4 4 7 8 8 9 7 6 5 5 7 8 9 10 11 10 10 10 12 14 12 12 13 14 16 18 15 12 16 18 18 18 16 15 14 15 12 14 14 14 14 12 14 16 11 12 11 10 9 9 9 9 8 8 8 8 8 9 10 9 9 10 8 8 7 6 10 12 12 13 14 15 13 12 14 15 13 13 14 12
3 1 2 3 4 3 3 3 5 6 8 10 8 5 5 7 8 8 8 7 10 12 13 11 12 12 9 11 13 11 13 12 15 26 25 29 24 20 18 17 16 16 20 27 18 12 9 9 7 6 8 8 8 8 8 8 8 8 8 7 7 7 7 6 8 9 9 8 5 5 7 10 13 14 14 14 14 13 12 14 15 16 13 14 16
3 1 2 3 4 4 4 4 3 4 5 7 10 13 11 13 9 9 9 17 23 22 20 13 15 14 14 13 14 16 14 17 33 36 35 34 34 33 30 30 29 24 31 37 15 5 4 7 5 6 7 7 7 7 8 7 7 7 7 7 8 7 7 7 7 7 8 8 8 10 10 11 13 14 14 14 12 12 13 15 14 14 16 15 14
2 0 2 2 4 4 4 5 4 4 4 5 5 5 11 15 16 16 17 20 22 23 22 24 25 26 20 15 17 30 31 33 35 35 36 35 34 34 33 30 31 30 31 21 15 14 12 10 5 5 7 6 6 6 6 7 7 7 6 7 7 8 7 6 6 7 8 8 8 10 11 12 14 15 16 15 15 13 12 12 14 15 15 16 15
2 0 1 3 4 4 3 3 4 5 5 4 4 5 5 7 14 19 21 18 20 21 21 23 25 26 28 26 20 15 27 34 36 35 36 36 35 34 32 30 29 29 27 26 16 14 12 11 11 12 12 8 5 6 6 6 6 6 6 7 7 7 7 7 7 9 8 8 9 10 11 11 13 14 15 15 15 14 13 12 13 15 14 13 15
2 1 2 3 3 4 4 3 3 4 5 5 6 5 6 7 8 11 16 21 21 18 18 22 26 26 27 28 29 29 28 31 35 35 36 35 36 33 31 29 27 32 33 21 13 14 12 11 11 11 10 10 11 12 8 6 7 7 7 7 7 6 6 7 7 9 9 9 10 11 12 12 12 14 14 14 15 14 14 14 13 14 14 14 13
2 1 2 3 3 3 3 3 4 4 4 5 4 5 6 5 7 8 11 13 15 16 19 24 24 26 26 28 28 32 32 33 34 35 34 36 36 35 28 20 28 34 26 13 13 12 11 12 12 11 11 10 10 11 11 12 10 6 7 7 7 5 5 6 8 9 8 9 9 10 11 11 11 12 12 12 13 14 15 14 14 13 13 14 14
1 2 4 3 2 2 3 3 4 4 4 4 5 6 6 6 6 7 8 10 11 13 13 16 20 24 21 22 28 33 32 31 33 33 33 34 36 37 27 19 22 20 19 13 13 11 12 12 12 11 11 11 12 10 11 11 10 11 8 6 6 6 5 7 8 9 9 8 9 9 10 11 12 12 13 13 12 13 14 14 13 14 15 14 13
1 0 1 2 2 1 2 3 3 4 3 4 5 5 5 6 7 7 7 8 8 9 11 11 12 18 27 25 28 30 31 29 30 31 31 33 34 35 20 15 14 13 11 13 15 11 9 10 11 11 11 10 10 10 10 10 10 10 10 10 6 6 6 7 8 9 9 9 9 10 11 11 12 12 13 14 17 16 15 16 16 15 15 15 13
2 0 1 2 1 0 1 2 3 3 5 6 5 4 5 5 6 5 7 7 8 8 9 11 11 12 14 13 21 25 29 26 28 29 32 31 34 21 13 12 12 12 12 14 14 11 11 12 12 11 10 11 11 10 10 10 11 10 11 10 10 6 7 8 9 9 10 10 9 10 11 11 11 12 13 14 14 14 14 14 14 14 14 16 15
2 1 3 4 1 2 2 2 3 5 5 3 5 4 4 5 5 6 7 8 9 9 10 11 11 11 14 15 19 15 20 23 28 25 24 25 22 17 16 13 14 13 12 14 14 14 13 13 13 13 12 11 10 10 10 10 11 11 10 11 10 10 9 9 10 10 10 9 9 10 11 11 12 12 12 14 15 14 14 15 15 14 14 17 15
1 3 2 1 2 1 1 1 3 3 4 4 4 6 7 6 7 7 7 7 7 8 9 9 9 11 12 13 12 16 19 16 17 17 17 17 18 18 11 11 13 11 12 14 14 14 13 14 14 13 12 12 11 12 11 11 10 11 11 11 10 10 8 8 8 9 9 9 9 9 10 11 11 12 12 13 14 14 15 15 15 15 15 15 16
2 0 2 1 3 3 2 3 2 3 6 5 5 5 5 6 6 6 7 7 8 8 8 9 10 10 12 11 12 13 13 14 14 14 16 17 19 12 8 11 12 10 10 15 14 14 13 13 13 13 13 13 13 12 12 12 11 10 10 9 11 10 12 8 7 8 9 10 10 10 11 11 12 12 12 12 13 14 15 16 15 15 15 16 16
3 1 0 2 2 2 2 2 2 2 3 4 3 4 4 5 5 6 6 6 7 7 7 8 8 9 10 16 27 22 10 10 12 13 13 13 16 10 11 11 13 11 13 14 13 13 13 13 13 13 13 13 13 13 13 13 12 11 11 11 10 10 10 9 10 6 7 9 9 10 11 11 12 12 13 12 12 13 13 14 15 14 14 14 14
4 2 1 1 2 0 0 2 3 3 2 4 3 4 5 6 5 5 6 6 7 7 8 7 8 8 14 27 25 26 12 9 11 13 14 14 12 10 11 10 12 12 14 14 14 14 14 13 14 13 14 14 14 14 14 13 13 13 12 10 11 11 10 10 10 9 9 6 8 9 10 11 11 13 14 13 12 12 12 13 13 14 14 14 13
4 2 2 2 1 0 1 1 1 1 3 2 3 4 5 4 4 6 6 6 5 7 7 8 9 9 11 18 21 21 10 10 9 12 12 11 9 9 11 12 11 12 12 12 12 13 13 13 13 14 14 14 14 14 14 13 12 13 12 13 12 10 10 11 9 10 9 8 7 8 11 11 12 12 11 11 11 12 12 12 13 13 13 14 14
4 3 4 2 2 1 1 1 1 2 1 3 3 4 4 4 3 4 5 5 6 6 6 6 7 9 9 12 13 11 10 11 11 11 12 12 8 9 10 11 14 13 13 13 13 13 14 14 14 14 14 14 14 14 12 12 12 12 13 13 11 12 10 9 10 9 9 9 7 7 7 11 12 12 11 11 12 12 12 13 13 13 13 12 13
4 4 3 2 1 1 1 1 1 1 3 4 2 2 4 2 5 5 5 6 7 6 5 5 6 7 9 9 10 10 10 10 11 11 12 12 12 9 10 11 12 12 13 13 13 14 14 14 15 15 17 15 15 14 13 13 12 12 12 12 13 12 11 10 8 9 9 8 7 7 6 9 10 11 11 12 13 13 12 13 13 13 13 13 13
4 4 4 2 2 2 1 1 1 1 1 1 3 4 4 3 3 4 6 6 6 6 6 6 6 6 7 7 8 9 10 10 10 10 11 13 13 13 13 9 11 13 13 13 13 15 14 15 15 15 16 17 16 15 14 14 14 13 13 12 13 11 12 11 10 9 8 8 7 6 6 6 9 9 11 11 11 11 12 13 12 13 14 14 15
5 4 3 3 2 3 2 1 0 1 2 1 1 2 3 4 4 5 5 6 6 7 6 6 7 7 7 7 8 9 9 9 10 10 11 12 12 12 11 10 12 14 15 14 13 14 15 15 15 15 16 16 16 17 16 15 14 14 14 13 14 15 15 13 11 10 9 9 8 6 5 3 7 7 9 10 9 10 11 11 12 14 13 13 14
4 5 4 4 2 2 1 1 1 2 2 2 1 2 3 4 5 5 5 5 5 6 6 6 6 6 7 7 7 7 8 9 9 9 10 10 11 12 14 12 10 14 15 15 13 14 14 15 15 15 15 16 18 17 17 17 16 16 15 15 16 19 23 22 13 14 12 10 9 9 8 6 3 3 7 7 7 7 8 7 8 8 10 10 10
5 6 4 3 3 2 3 1 2 1 0 1 1 3 4 3 4 4 4 4 5 5 5 6 7 6 6 6 7 7 7 8 9 10 10 10 11 12 12 14 15 12 12 15 14 14 15 14 16 14 15 14 17 17 17 18 18 17 18 17 23 35 33 31 19 18 18 13 11 11 10 9 9 8 6 3 6 8 7 7 8 8 7 7 8
4 4 4 3 3 2 3 2 1 1 0 1 1 1 2 4 4 5 5 5 4 4 6 5 6 6 6 7 9 8 8 8 9 9 9 10 10 11 12 15 12 11 17 13 12 13 13 14 15 15 15 14 15 17 16 17 18 19 19 22 34 35 34 32 29 32 21 12 13 11 11 11 11 10 9 8 6 4 7 9 8 8 9 10 10
5 3 3 2 3 3 2 2 2 1 0 0 0 1 2 3 5 5 5 5 5 5 5 5 6 6 6 6 7 7 8 8 7 7 8 9 9 11 12 12 10 11 18 20 13 13 13 14 14 15 14 14 14 16 16 17 18 21 28 37 37 35 36 33 23 29 32 20 13 14 13 14 13 13 11 10 9 9 8 6 5 8 10 10 10
Wind_Direction
250 261 273 287 299 295 298 310 312 311 304 298 294 292 294 294 293 292 295 291 294 294 293 290 289 290 292 294 295 299 297 296 296 292 288 283 279 277 274 265 262 262 260 260 256 264 267 268 269 261 256 257 260 262 258 243 233 226 224 224 230 227 227 239 248 260 270 238 252 269 275 249 207 181 168 171 173 177 164 155 149 153 153 148 156
245 270 284 295 295 302 310 315 309 305 299 296 292 294 295 295 295 296 291 292 295 294 294 294 295 301 302 302 301 298 297 295 294 294 287 285 282 280 277 274 270 264 258 260 257 254 259 260 260 262 252 253 258 258 257 245 231 224 227 235 246 244 231 238 243 253 262 265 251 259 266 245 211 181 176 172 172 170 166 160 159 156 155 153 154
260 292 304 304 306 314 316 312 307 299 295 293 293 295 295 294 296 294 298 299 297 295 300 305 306 306 303 300 298 296 294 294 292 292 289 287 283 281 281 281 278 275 270 267 265 261 257 253 253 251 250 255 257 258 256 243 229 226 226 229 237 238 237 236 246 248 253 262 249 258 258 246 219 183 171 178 173 167 159 163 159 158 153 155 153
310 308 304 306 314 316 314 305 300 296 292 293 292 293 292 294 300 298 299 301 302 304 307 306 306 304 300 298 296 295 294 292 289 286 287 286 284 281 279 277 277 274 272 270 266 262 259 259 256 250 249 251 254 260 255 236 225 223 225 228 233 241 236 239 238 248 253 259 251 235 250 249 233 184 173 171 174 166 161 159 160 155 156 154 155
327 317 324 321 317 310 296 296 291 290 291 291 290 290 291 298 302 304 306 305 305 307 304 307 305 302 298 297 295 293 291 288 286 284 283 281 280 280 278 276 273 274 274 274 271 269 274 280 282 283 266 253 258 261 259 236 226 225 227 230 238 242 246 245 248 246 250 249 255 240 241 249 236 194 170 166 172 165 161 163 159 156 156 158 156
337 339 333 324 314 300 294 289 292 294 293 291 291 295 301 304 306 305 307 306 308 304 306 305 300 297 295 294 291 290 289 286 283 282 281 280 277 275 274 273 273 271 270 272 272 269 270 272 276 271 272 270 262 258 263 254 233 226 227 230 231 235 241 241 239 241 245 247 244 247 241 242 243 206 172 167 166 160 157 158 157 156 153 152 155
354 343 332 316 302 296 292 293 296 295 295 296 299 302 301 303 306 308 308 305 304 302 299 293 291 293 293 292 289 288 288 285 282 280 279 276 274 273 272 270 269 269 268 268 266 265 263 261 258 257 255 252 257 260 260 256 244 232 228 232 233 238 242 244 241 240 241 243 239 237 242 238 227 211 180 168 168 162 156 152 152 152 153 150 151
350 334 318 304 295 292 296 296 295 294 294 297 296 298 302 308 309 309 309 305 300 293 294 294 288 284 290 286 284 287 283 282 280 278 276 274 271 270 269 270 267 265 266 266 266 264 263 261 259 257 254 252 250 252 253 258 252 243 234 230 238 246 258 265 275 269 250 238 233 231 229 234 233 217 171 164 164 167 162 155 154 154 155 155 155
336 319 302 290 289 295 297 299 294 296 300 300 303 306 310 310 311 309 306 300 296 292 287 282 281 281 278 275 282 283 284 283 279 275 275 271 268 267 267 266 265 265 261 263 263 261 259 256 258 258 258 257 253 253 251 246 236 233 230 227 233 241 247 250 256 259 265 248 235 224 227 226 216 209 176 168 166 164 166 159 156 158 155 153 159
314 300 286 285 291 294 296 296 299 301 303 305 310 314 312 315 312 308 303 300 298 296 292 278 271 274 284 287 286 287 284 279 276 276 274 275 271 269 265 264 263 263 262 261 260 258 255 249 248 253 254 254 255 254 256 261 263 256 243 228 228 235 238 244 246 255 264 255 234 220 219 224 204 206 178 169 164 159 160 160 153 150 143 141 140
290 284 284 284 289 291 292 294 300 302 308 309 314 316 315 314 310 306 305 303 300 299 295 288 272 281 294 291 293 287 283 283 280 282 282 278 277 273 270 268 265 264 264 265 269 268 267 263 258 252 252 253 253 252 250 253 254 250 239 233 228 230 242 242 247 246 256 264 246 222 221 218 204 194 188 165 163 162 158 152 144 143 147 148 153
281 279 279 284 289 293 295 302 307 311 315 316 318 318 312 311 310 308 306 307 305 302 300 303 304 303 299 298 294 290 286 284 287 286 285 284 281 276 272 267 262 259 258 260 263 264 264 264 263 265 266 260 252 249 253 253 253 255 253 248 239 238 235 234 246 254 248 259 257 228 218 213 205 190 185 163 158 160 158 155 155 155 156 161 160
276 280 277 282 291 296 302 309 314 316 319 317 316 315 314 312 312 312 311 309 307 309 311 308 307 307 305 304 303 299 294 290 289 289 289 287 285 282 278 269 265 260 262 260 261 260 262 262 263 261 261 260 254 246 242 247 252 252 250 251 250 249 248 245 242 244 256 253 264 247 214 206 205 195 173 165 157 156 158 163 163 161 163 165 170
268 270 274 283 297 306 312 317 316 317 316 317 317 317 315 312 310 308 308 311 312 311 308 308 308 308 307 304 301 298 295 293 293 292 292 291 290 289 280 270 260 255 255 255 254 256 259 263 262 260 258 264 263 244 232 236 242 244 245 244 244 243 244 245 246 243 243 248 250 254 227 197 202 197 172 161 161 159 161 164 168 165 166 172 165
268 273 285 292 301 308 320 320 321 320 323 321 319 315 313 312 313 314 313 315 315 312 314 313 309 304 300 298 296 295 292 293 296 298 298 295 291 291 283 274 264 255 251 248 247 249 248 256 255 257 259 257 259 257 241 242 243 241 239 240 238 239 239 239 240 241 250 244 241 244 242 204 198 200 172 164 167 167 169 170 171 167 143 95 73
271 283 290 304 311 325 324 325 325 324 324 322 318 316 316 315 316 318 315 311 306 305 304 301 302 302 298 297 297 294 290 296 298 298 297 297 298 294 284 274 256 253 247 246 250 251 254 254 253 254 254 253 251 253 255 254 246 240 241 244 247 246 245 239 240 246 251 256 253 241 237 212 191 196 181 165 168 161 133 99 90 102 124 139 146
274 288 291 300 321 327 328 326 325 323 320 318 317 317 317 318 317 316 312 311 309 309 305 302 300 300 300 299 300 296 291 296 302 304 305 306 306 302 303 287 256 252 251 248 248 249 251 250 252 255 253 254 250 246 245 244 246 248 246 245 245 250 255 251 244 253 260 260 255 249 236 219 191 189 185 167 157 139 129 136 148 150 155 153 153
278 285 290 303 319 328 327 326 322 318 316 314 312 311 309 306 307 314 311 312 312 308 306 303 301 300 300 301 299 299 300 300 302 306 310 313 313 309 300 293 265 260 251 242 240 249 241 248 252 251 251 251 253 252 247 240 239 241 246 248 250 253 257 257 263 268 272 268 255 238 231 215 196 181 184 166 149 150 157 161 162 160 161 161 164
274 295 301 314 318 322 319 317 311 308 307 307 309 310 312 312 309 309 306 304 301 301 301 302 301 302 300 300 307 309 295 295 301 308 313 314 314 308 304 299 282 265 259 255 243 244 244 240 249 251 249 250 248 247 245 243 243 241 242 244 247 250 251 257 265 277 284 282 250 228 226 210 188 178 175 169 160 162 164 164 165 168 169 169 163
288 292 301 306 312 311 311 306 302 302 303 304 305 306 307 308 312 313 310 306 303 303 300 301 303 305 308 309 308 304 302 299 303 313 314 313 313 312 306 304 301 297 274 260 253 232 237 237 244 249 252 249 249 248 245 241 238 235 237 239 241 249 252 261 262 265 282 281 250 218 211 197 188 171 167 171 171 172 170 165 168 171 169 164 162
288 295 306 306 306 308 307 299 299 297 294 299 304 307 310 313 313 314 312 309 305 303 304 304 305 306 309 310 308 313 303 303 314 317 314 314 314 316 306 301 297 292 290 281 258 247 239 237 226 245 252 252 248 247 246 244 241 234 232 235 238 253 264 260 265 270 276 278 249 207 198 188 178 169 165 168 176 181 174 169 173 174 165 162 166
290 300 307 308 305 308 305 302 295 294 299 304 309 309 310 309 308 311 309 309 310 309 309 310 310 311 312 313 317 313 307 317 317 315 314 314 314 315 312 301 298 296 292 284 278 253 246 243 223 241 248 253 252 248 246 246 245 243 241 243 244 246 251 253 264 271 273 273 239 200 183 179 174 171 166 168 175 179 172 175 185 183 172 169 172
297 308 307 309 316 311 307 302 305 303 304 309 309 312 314 315 315 312 310 311 312 314 316 317 318 320 320 321 323 324 325 321 321 317 315 314 315 316 315 314 310 308 297 293 284 255 234 230 230 237 243 249 251 249 249 248 246 244 246 246 242 242 246 250 254 262 264 262 227 185 172 175 172 167 166 170 173 174 177 177 180 180 182 185 182
309 306 306 317 315 311 305 304 300 303 305 310 312 311 317 319 318 316 313 313 316 317 315 316 324 325 325 323 329 334 331 327 322 321 318 317 317 320 319 316 314 307 300 291 288 273 243 230 228 236 238 243 248 248 246 244 238 237 238 238 241 240 239 248 251 251 256 249 212 174 171 176 176 168 170 171 171 176 178 176 177 175 171 168 137
283 312 330 325 318 309 308 304 303 302 307 312 318 317 317 323 321 319 317 320 321 315 312 317 326 327 326 330 329 328 327 321 320 319 319 319 322 323 322 321 319 316 308 293 281 278 266 249 240 235 234 239 244 245 243 245 243 237 229 229 230 226 231 234 241 249 252 227 200 176 170 179 182 178 170 168 168 168 165 151 118 94 95 101 97
63 6 345 329 312 310 316 316 313 307 308 311 308 310 313 321 320 317 321 321 319 310 297 326 330 331 332 329 329 329 329 327 323 322 314 320 327 327 327 325 322 320 314 296 289 283 278 273 257 240 234 236 240 237 238 238 243 240 231 221 215 218 219 230 240 246 241 210 194 185 177 175 183 176 159 150 154 159 145 134 137 137 128 126 114
71 20 354 319 305 304 312 315 322 322 319 311 303 309 319 317 315 315 320 321 308 300 315 329 331 334 332 329 330 331 333 331 332 319 314 329 332 331 330 327 325 322 312 300 298 289 280 279 261 236 226 232 236 240 240 240 239 234 223 217 213 214 220 224 233 241 234 207 195 193 183 172 153 144 153 154 155 161 162 158 159 154 141 140 137
79 24 320 304 299 297 303 317 322 319 321 323 318 312 312 310 313 322 327 326 316 320 326 330 333 321 320 327 324 328 334 326 321 336 339 337 337 337 332 326 326 324 320 313 300 286 276 271 271 236 224 230 240 238 239 232 227 224 213 211 214 217 223 230 238 246 242 217 197 190 163 153 151 152 153 162 166 165 163 163 159 151 145 138 136
68 9 306 300 299 294 299 302 307 313 317 322 318 308 305 314 319 312 314 301 321 328 330 330 332 328 305 328 322 322 331 331 335 342 341 343 344 340 338 338 333 332 324 318 302 269 240 258 233 216 205 223 228 237 241 232 224 222 222 221 226 225 223 215 226 233 228 202 179 153 160 158 157 156 159 165 169 164 165 165 163 155 155 156 158
77 1 299 296 299 305 315 315 309 315 314 317 324 325 322 336 336 328 319 331 336 336 341 337 339 339 332 335 334 344 339 338 341 345 346 348 348 349 346 343 344 344 343 335 323 267 263 237 210 207 214 213 229 238 240 234 233 225 226 226 228 230 225 227 229 228 217 188 162 159 167 170 160 160 162 165 161 164 169 165 162 160 157 165 160
89 338 311 301 303 319 319 320 319 316 308 309 314 316 323 325 337 346 341 336 336 338 342 343 346 348 348 343 338 350 349 348 350 350 351 352 352 352 351 347 353 355 2 357 19 20 3 351 319 236 210 212 221 235 231 235 231 227 228 229 226 228 226 228 226 218 209 187 173 169 168 172 167 164 166 165 165 165 168 169 161 166 169 167 165
109 275 283 289 301 309 308 312 315 319 320 316 317 320 317 319 323 333 344 344 337 336 341 346 349 351 352 352 348 349 353 355 355 355 356 356 355 353 353 350 359 5 7 22 25 10 3 7 6 3 349 325 281 231 222 229 231 224 232 228 228 220 217 224 217 211 201 187 175 170 174 176 170 168 166 167 166 165 165 166 168 171 173 170 166
130 258 277 295 298 309 317 316 317 315 318 322 327 325 326 332 333 329 330 336 339 340 345 350 352 353 353 352 354 1 360 359 359 357 359 358 358 353 354 350 2 14 18 25 18 5 3 4 5 357 355 347 343 338 314 243 218 227 224 230 232 223 215 222 217 213 201 191 178 177 175 177 175 171 169 167 166 165 168 169 173 175 169 168 165
160 204 243 269 297 312 319 316 323 316 307 314 315 325 326 333 329 325 328 330 336 341 345 350 352 351 351 353 356 4 2 2 1 0 1 2 0 357 353 351 11 19 23 20 11 1 355 1 359 357 350 347 346 338 339 337 317 254 226 224 229 224 217 207 212 213 208 190 185 181 176 176 174 170 167 166 168 166 170 175 171 167 169 172 166
159 252 274 296 291 298 309 324 317 308 307 322 325 330 328 331 333 335 337 333 333 334 334 335 340 348 353 351 356 3 1 360 1 2 5 7 6 0 357 10 10 2 7 8 8 1 355 358 354 347 349 350 346 341 334 327 327 326 304 248 219 213 206 205 206 207 203 193 184 181 178 176 173 172 166 166 168 170 174 174 174 172 172 175 168
134 224 284 289 285 282 323 312 316 307 308 324 320 320 320 332 338 335 327 322 321 324 326 334 329 333 349 352 355 1 358 357 358 2 6 8 10 11 6 353 355 356 352 3 2 353 345 347 350 345 345 342 339 343 335 326 327 318 315 308 266 206 204 201 202 199 201 195 187 178 177 178 175 174 171 170 173 176 179 178 178 181 176 172 169
136 223 243 261 234 345 351 324 314 309 336 328 325 328 334 340 336 335 330 326 326 324 326 325 331 340 348 349 351 356 356 354 353 3 9 8 9 12 1 348 345 348 355 360 357 349 351 355 353 344 343 343 339 337 333 332 325 320 315 315 306 260 209 206 196 194 195 196 188 180 178 178 177 177 172 173 177 178 179 181 180 177 177 172 166
153 197 231 229 166 74 356 334 317 341 327 324 328 336 340 346 347 338 332 331 333 333 335 337 345 348 347 339 341 358 349 349 358 6 5 8 9 6 0 354 348 351 353 356 358 356 353 353 353 351 348 343 336 338 338 335 334 329 324 316 311 302 243 210 204 195 193 192 191 182 180 180 177 179 178 177 178 179 180 180 179 177 178 175 172
166 230 260 330 50 118 75 344 335 338 336 339 343 355 355 352 348 342 339 330 328 333 334 336 342 346 341 330 337 357 354 1 4 359 357 359 2 2 341 352 349 337 348 354 352 356 354 355 352 349 350 350 347 346 346 338 334 336 332 327 319 322 284 211 210 201 194 192 188 183 184 181 179 181 181 180 179 178 178 179 179 176 175 178 185
125 40 300 41 64 9 40 340 348 348 342 343 343 358 353 357 348 337 328 328 333 333 334 341 341 339 331 313 346 5 1 357 357 353 356 358 357 335 340 349 345 328 340 351 352 352 354 354 352 352 351 350 351 348 350 348 345 334 334 336 339 331 331 297 218 202 203 198 188 185 183 183 180 181 184 184 182 180 177 177 179 179 180 182 186
142 184 16 6 76 67 4 4 8 345 341 333 337 343 344 338 336 328 323 327 328 331 336 335 331 331 324 342 356 6 8 350 352 353 352 353 351 328 343 342 340 326 350 349 348 350 352 352 354 354 353 353 352 352 351 351 349 346 342 342 341 340 333 341 340 305 224 200 198 189 187 186 182 181 184 187 183 180 180 179 178 179 182 184 178
130 130 113 82 32 63 43 10 345 346 337 335 341 342 344 346 335 323 331 328 330 330 334 335 332 333 334 349 355 1 2 346 351 354 352 353 341 334 335 335 325 339 351 345 345 349 349 352 356 357 356 356 355 355 353 354 354 351 348 343 343 342 344 343 340 340 332 275 207 195 193 187 186 187 187 182 179 181 178 180 180 180 180 180 177
143 144 153 126 129 125 105 348 324 347 352 349 343 341 346 347 333 327 324 326 326 334 337 340 336 337 340 346 352 355 355 349 352 352 349 345 322 330 339 338 338 343 344 340 340 346 347 349 355 1 359 357 357 355 355 352 348 349 349 350 346 345 343 339 338 340 331 329 303 217 194 192 188 190 187 181 177 177 180 178 181 181 181 178 178
145 136 137 121 115 56 88 71 29 0 340 348 350 343 345 343 330 327 329 332 334 334 339 334 333 338 337 343 349 351 350 348 347 349 347 337 324 333 334 328 343 345 349 348 346 349 352 352 354 359 1 1 359 357 355 355 352 351 353 350 348 346 341 339 337 329 327 318 303 298 222 197 192 189 184 180 181 180 179 179 179 182 180 181 177
137 131 128 118 123 98 53 359 53 12 360 357 351 342 339 346 340 331 336 337 332 334 335 336 341 340 342 344 348 346 344 343 339 342 346 348 333 323 333 333 338 341 349 347 346 350 353 354 354 357 3 2 1 359 358 356 357 356 354 354 355 350 345 331 319 311 305 293 298 292 256 204 200 193 186 184 184 182 181 181 181 179 178 179 179
142 140 135 135 122 117 82 16 40 53 14 359 356 345 344 342 331 331 337 332 333 333 334 341 342 343 343 340 342 344 343 340 340 340 341 341 338 333 338 325 333 347 349 348 345 353 354 354 355 356 360 2 359 359 358 358 360 359 359 2 2 355 345 333 320 308 305 305 295 289 274 220 193 194 191 187 189 187 186 183 181 180 181 181 185
137 140 143 140 146 145 124 129 348 47 24 5 2 354 342 337 330 333 336 338 336 333 340 339 346 347 345 344 343 341 339 339 338 338 338 337 340 337 329 332 336 350 352 347 347 353 354 355 355 355 357 2 1 0 1 1 0 1 3 2 6 4 358 349 344 337 329 312 307 298 296 214 186 186 187 187 188 191 188 186 183 182 184 183 185
148 146 144 147 143 141 154 122 66 54 37 11 353 350 335 331 332 333 337 337 337 337 337 338 342 342 343 342 341 338 337 335 332 334 335 339 338 340 331 324 345 353 353 348 347 353 355 355 354 353 354 1 5 3 2 1 2 4 4 5 8 10 4 3 358 357 350 342 343 354 356 13 42 137 163 166 166 167 173 175 180 183 181 181 183
151 152 154 152 160 163 161 165 150 123 67 25 358 348 329 336 328 325 324 333 334 334 338 339 337 340 342 340 336 335 334 336 337 338 339 338 337 338 343 344 336 339 342 349 347 351 354 354 354 354 352 356 6 4 5 3 5 4 6 6 9 12 13 11 10 7 1 2 6 10 19 27 32 31 28 97 152 158 158 155 161 160 159 162 166
153 157 160 165 163 171 170 157 161 145 130 28 4 328 331 332 324 326 327 332 335 339 343 340 339 337 336 338 343 339 339 340 339 336 334 333 336 340 341 339 328 324 318 337 345 348 353 353 354 353 354 351 5 7 7 7 6 5 6 6 10 14 17 16 15 14 14 9 10 17 21 34 37 38 33 25 19 99 140 154 153 154 158 161 165
156 156 163 171 171 168 155 148 157 174 150 222 224 313 324 322 310 309 312 326 334 338 340 336 333 333 337 332 330 330 332 330 328 329 330 329 334 338 340 344 327 340 342 320 340 350 352 352 354 353 354 351 360 10 9 9 8 5 7 9 12 15 18 21 20 17 18 18 18 19 28 30 36 37 31 26 32 37 32 46 122 150 161 166 162